TimeEDT,TemperatureF,Dew PointF,Humidity,Sea Level PressureIn,VisibilityMPH,Wind Direction,Wind SpeedMPH,Gust SpeedMPH,PrecipitationIn,Events,Conditions,WindDirDegrees,DateUTC
12:53 AM,57.9,55.0,90,29.98,10.0,East,3.5,-,N/A,,Clear,80,2013-09-21 04:53:00
1:53 AM,55.9,54.0,93,29.97,9.0,Calm,Calm,-,N/A,,Clear,0,2013-09-21 05:53:00
2:53 AM,55.9,54.0,93,29.96,10.0,Calm,Calm,-,N/A,,Clear,0,2013-09-21 06:53:00
3:53 AM,55.0,53.1,93,29.94,10.0,ENE,4.6,-,N/A,,Clear,60,2013-09-21 07:53:00
4:53 AM,55.9,54.0,93,29.94,9.0,ENE,4.6,-,N/A,,Mostly Cloudy,60,2013-09-21 08:53:00
5:53 AM,57.0,55.0,93,29.94,10.0,East,3.5,-,N/A,,Overcast,80,2013-09-21 09:53:00
6:53 AM,55.0,53.1,93,29.92,8.0,East,5.8,-,N/A,,Clear,100,2013-09-21 10:53:00
7:53 AM,57.0,54.0,89,29.91,6.0,East,4.6,-,N/A,,Clear,90,2013-09-21 11:53:00
8:53 AM,63.0,59.0,87,29.89,10.0,SE,9.2,-,N/A,,Clear,140,2013-09-21 12:53:00
9:53 AM,66.9,60.1,79,29.89,10.0,South,6.9,-,N/A,,Mostly Cloudy,180,2013-09-21 13:53:00
10:39 AM,69.8,60.8,73,29.87,10.0,South,9.2,-,N/A,,Scattered Clouds,180,2013-09-21 14:39:00
10:53 AM,69.1,60.1,73,29.86,10.0,SSE,11.5,27.6,N/A,,Scattered Clouds,160,2013-09-21 14:53:00
11:53 AM,72.0,61.0,68,29.83,10.0,South,12.7,-,N/A,,Mostly Cloudy,190,2013-09-21 15:53:00
12:53 PM,73.0,60.1,64,29.80,10.0,South,15.0,21.9,N/A,,Overcast,180,2013-09-21 16:53:00
1:01 PM,73.4,60.8,65,29.80,10.0,South,12.7,23.0,N/A,,Overcast,190,2013-09-21 17:01:00
1:53 PM,75.0,57.9,55,29.77,10.0,South,13.8,21.9,N/A,,Overcast,170,2013-09-21 17:53:00
2:53 PM,73.0,55.9,55,29.75,10.0,South,16.1,25.3,N/A,,Overcast,180,2013-09-21 18:53:00
3:53 PM,73.0,57.0,57,29.72,10.0,South,12.7,21.9,N/A,,Overcast,170,2013-09-21 19:53:00
4:53 PM,72.0,57.9,61,29.70,10.0,South,18.4,24.2,0.00,,Overcast,180,2013-09-21 20:53:00
5:40 PM,66.2,62.6,88,29.72,1.8,South,10.4,-,0.08,Rain,Heavy Rain,190,2013-09-21 21:40:00
5:53 PM,66.0,62.1,87,29.72,3.0,SW,6.9,-,0.11,Rain,Light Rain,230,2013-09-21 21:53:00
6:44 PM,64.4,62.6,94,29.71,2.5,South,8.1,-,0.07,Rain,Rain,170,2013-09-21 22:44:00
6:53 PM,64.9,63.0,93,29.70,2.0,South,11.5,-,0.10,Rain,Rain,180,2013-09-21 22:53:00
7:08 PM,64.4,64.4,100,29.70,4.0,South,8.1,-,0.02,Rain,Rain,170,2013-09-21 23:08:00
7:42 PM,66.2,64.4,94,29.69,4.0,South,8.1,-,0.07,Rain,Rain,170,2013-09-21 23:42:00
7:53 PM,66.0,64.0,93,29.69,4.0,South,10.4,-,0.09,Rain,Rain,180,2013-09-21 23:53:00
8:11 PM,64.4,62.6,94,29.71,2.5,West,15.0,21.9,0.11,Rain,Heavy Rain,260,2013-09-22 00:11:00
8:13 PM,64.4,62.6,94,29.70,2.5,WSW,13.8,21.9,0.12,Rain,Heavy Rain,250,2013-09-22 00:13:00
8:23 PM,64.4,62.6,94,29.71,4.0,West,12.7,-,0.15,Rain,Rain,260,2013-09-22 00:23:00
8:41 PM,64.4,62.6,94,29.72,4.0,West,10.4,-,0.20,Rain,Rain,260,2013-09-22 00:41:00
8:53 PM,63.0,62.1,97,29.72,4.0,West,8.1,-,0.22,Rain,Rain,280,2013-09-22 00:53:00
9:53 PM,62.1,61.0,96,29.71,5.0,WNW,3.5,-,0.11,Rain,Rain,300,2013-09-22 01:53:00
10:53 PM,62.1,61.0,96,29.73,3.0,NW,3.5,-,0.15,Rain,Rain,320,2013-09-22 02:53:00
11:53 PM,61.0,59.0,93,29.71,10.0,NNW,3.5,-,0.04,,Overcast,330,2013-09-22 03:53:00